Location: Pabrico
(37.5827°N, 122.0063°W)
Time: 21:13:46
(UTC+00:00)

Cosmos 1484 Rocket - Visible Passes

Search period start: 18 July 2024 00:00
Search period end: 28 July 2024 00:00
Orbit: 478 x 521 km, 97.6° (Epoch: 17 July)

Date Brightness Start Highest point End Pass type
(mag) Time Alt. Az. Time Alt. Az. Time Alt. Az.
18 Jul 4.2 12:11:55 10° NNE 12:15:14 34° E 12:18:29 10° SSE visible
19 Jul 5.2 11:52:43 10° NE 11:55:20 19° E 11:57:54 10° SE visible
20 Jul 5.8 11:34:48 10° E 11:35:22 10° E 11:35:56 10° E visible
22 Jul 3.3 12:26:06 10° NNE 12:29:38 54° E 12:33:06 10° S visible
23 Jul 4.6 12:06:34 10° NE 12:09:41 28° E 12:12:47 10° SSE visible
24 Jul 5.4 11:47:27 10° NE 11:49:40 16° E 11:51:53 10° SE visible
27 Jul 3.7 12:20:16 10° NNE 12:23:41 43° E 12:27:04 10° S visible
